Location: Hohe Wand Kleine Kanzel
(47.8330°N, 16.0170°E)
Time: 16:44:03
(UTC+02:00)

Vanguard 3 - Pass Details

Date: 04 August 2021
Orbit: 510 x 3260 km, 33.4° (Epoch: 23 September)

Event Time Altitude Azimuth Distance (km) Brightness Sun altitude
Rises 22:56:21 0° 273° (W) 6,600 12.3 -19.3°
Reaches altitude 10° 23:01:01 10° 265° (W) 5,843 11.8 -19.7°
Maximum altitude 23:16:49 35° 210° (SSW) 4,452 10.6 -21.0°
Enters shadow 23:25:30 25° 172° (S) 4,868 10.5 -21.7°
